Погода в Бугульме

Хотите узнать прогноз погоды в Бугульме? Тогда Вам сюда: Погода в Бугульме

Поиск расширенной информации на нашем сайте:

Полезная информация:

Новости сайта



02.01.2020
Опубликован Долгосрочный прогноз погоды по городам России и ближнего зарубежья на январь 2020 года.
Карты: Прогноз на январь и февраль 2020 года, Сравнение прогнозируемой аномалии приземной температуры воздуха на январь 2020 года по разным моделям.




Погода в Бугульме - сегодня

Время (UTC), дата Ветер
(°,м/с) 
Видим.   Явления Облачность Т
(°С)
Тd
(°С)
f(%) Тe
(°С)
Pmin
(гПа)
dP
(гПа)
Po
(мм)
O2
(г/м3)
Тmin Tmax R s Состояние
почвы
12 19.10.20 240 (ЮЗ) 20000 м    8/4 1000 м верхняя 
[Sc diur, vesp|Ci fib]
+11.6 +3.9 59 +11  1012.9  -0.2  733  283           
15 19.10.20 240 (ЮЗ) 10 км    6/0 средняя, верхняя 
[Ac trans|Ci fib]
+3.5 +1.5 87 +3  1014.2  0.2  733  291    +12.2       
18 19.10.20 260 (З) 10 км    6/0 средняя, верхняя 
[Ac trans|Ci fib]
+4 +1.1 81 +4  1014.1  733  291           
21 19.10.20 280 (З) 10 км    10/8 900 м средняя 
[Sc|Ac und]
+2.7 +0.7 87 +2  1013.5  -0.8  732  292           
00 20.10.20 260 (З) 10 км    10/8 840 м средняя 
[Sc|Ac und]
+2.9 +0.2 82 +2  1012.6  -0.9  732  292           
03 20.10.20 240 (ЮЗ) 20000 м    10/3 1000 м средняя, верхняя 
[Sc|Ac trans|Ci fib]
+1.4 -2 78 1012.8  -0.1  732  293  +1.4        сухая 
06 20.10.20 240 (ЮЗ) 20000 м    8/4 1000 м средняя, верхняя 
[Sc|Ac trans|Ci fib]
+3.6 -0.9 72 +2  1012.6  0.1  732  291  +1.3         
09 20.10.20 270 (З) 6-10{10}  20000 м    8/8 840 м кучево-дожд. 
[Cb calv]
+5.8 -1 62 +3  1012.3  732  289           
12 20.10.20 260 (З) 4{11}  20000 м    6/6 1200 м 
[Sc]
+7.5 -4 44 +6  1012.4  0.3  732  287           
15 20.10.20 250 (З) 10 км    3/0 средняя 
[Ac trans]
+2.9 -5 56 +2  1013.3  0.3  732  292    +8.3       
18 20.10.20 270 (З) 10 км    10/6 1300 м средняя 
[Sc|Ac und]
+3.3 -4.7 56 +2  1013.2  732  292           
21 20.10.20 230 (ЮЗ) 10 км  слаб. ливневой снег  10/8 1000 м кучево-дожд., средняя 
[Cb calv|Ac und]
+1.2 -2.5 76 +1  1012.8  -0.6  732  294           
00 21.10.20 230 (ЮЗ) 10 км  {ливн. осадки}  8/3 1000 м средняя 
[Sc|Ac trans]
+0.1 -1.6 88 -2  1012  -0.9  731  295           
03 21.10.20 240 (ЮЗ) 20000 м  {ливн. осадки}  10/6 600 м кучево-дожд., средняя, верхняя 
[Cb calv|Ac trans|Ci fib]
-0.5 -2.6 86 -3  1012  -0.2  731  295  -1.5        замёрзшая 
06 21.10.20 270 (З) 20000 м  слаб. ливневой снег  10/8 270 м кучево-дожд., средняя 
[Cb calv|Ac und]
+1.1 -1.1 85 -2  1012.2  0.5  731  293           
09 21.10.20 280 (З) 7-10{11}  20000 м    8/6 1200 м кучево-дожд., средняя, верхняя 
[Cb calv|Ac trans|Ci fib]
+2.5 -6.8 50 -1  1012.1  0.1  731  293           
12 21.10.20 260 (З) 6{15}  20000 м  в посл. час ливневой снег  8/6 300 м кучево-дожд., средняя 
[Cb calv|Ac trans]
-0.7 -3.7 80 -4  1012.7  0.2  731  296           
15 21.10.20 290 (З) 6-12{12}  10 км    10/6 1380 м средняя, верхняя 
[Sc|Ac trans|Ci fib]
-1.1 -8.1 59 -5  1014.6  1.8  733  297    +2.7  0.1     
18 21.10.20 260 (З) 6{12}  10 км  слаб. ливневой снег  10/8 540 м кучево-дожд., средняя 
[Cb calv|Ac und]
-1.9 -4.9 80 -6  1014.7  733  298           
21 21.10.20 270 (З) 10 км  слаб. ливневой снег  10/8 750 м кучево-дожд., средняя 
[Cb calv|Ac und]
-1.3 -3.7 84 -5  1014.8  0.1  733  297           
00 22.10.20 270 (З) 5{10}  10 км  слаб. ливневой снег  10/8 450 м кучево-дожд., средняя 
[Cb calv|Ac und]
-1.3 -4 82 -5  1015.4  0.6  733  297           
03 22.10.20 280 (З) 4{10}  10 км  слаб. ливневой снег  10/8 480 м кучево-дожд., средняя 
[Cb calv|Ac und]
-1.8 -3.8 86 -5  1017  1.5  734  298  -2.1    0.4  равномерный
сухой снег
100% 
06 22.10.20 280 (З) 20000 м  {ливн. осадки}  10/8 480 м кучево-дожд., средняя 
[Cb calv|Ac und]
-0.8 -4.5 76 -4  1018.3  1.4  735  298           
09 22.10.20 270 (З) 5{11}  20000 м  {ливн. осадки}  10/8 800 м кучево-дожд., средняя 
[Cb calv|Ac und]
-0.4 -5.8 67 -3  1018.9  0.6  736  297           
12 22.10.20 280 (З) 5{10}  20000 м  слаб. ливневой снег  10/8 700 м кучево-дожд., средняя 
[Cb calv|Ac und]
-1.2 -5.8 71 -4  1019.7  0.7  736  299           
Время (UTC), дата Ветер
(°,м/с) 
Видим.   Явления Облачность Т
(°С)
Тd
(°С)
f(%) Тe
(°С)
Pmin
(гПа)
dP
(гПа)
Po
(мм)
O2
(г/м3)
Тmin Tmax R s Состояние
почвы

Для получения пояснительной информации подведите курсор к названию столбца.

ПОГОДА в Бугульме - архив

Всё, что Вы хотите узнать о погоде в Бугульме - удобно и подробно!

Выберите нужную дату (начиная с 1 января 2019* года) и нажмите кнопку "Найти".
Будут отображены архивные сводки погоды по пункту Бугульма, начиная с указанной даты.


Отображать данные в формате CSV (для использования в таблицах Excel)


Внимание! Наш архив погоды предназначен исключительно для личного некоммерческого использования в познавательных целях. Если Вам необходимы официальные справки о состоянии погоды (для производственных, юридических, коммерческих и т.п. целей), обращайтесь в органы Росгидромета.

*Примечание: данная дата относится к архиву по метеостанциям СССР (Россия, СНГ, Балтия).
Архив по метеостанциям Зарубежной Европы и Азии (кроме Китая) хранится 10 дней, по другим регионам земного шара (Китай, Африка, Америка, Австралия, Океания) - 1 день.

Бугульма - район местоположения метеостанции


Название, широта, долгота, высота метеостанции:
Бугульма 54.6°ш. 52.8°д. 304 м над ур. моря [Российская Федерация]

Дополнительная информация

В oтличие oт бoльшинства пoгoдных сайтoв мы публикуем пoдрoбную метеoинфoрмацию в детальнoм прoфессиoнальнoм фoрмате.

Характеристики температуры и влажнoсти вoздуха измеряются на высoте 2 м в тени вдали oт зданий и деревьев.
Скoрoсть ветра измеряется на высoте 10 м (на урoвне рoста челoвека скoрoсть ветра ниже в 1.5-2 раза). Если метеoстанция нахoдится в гoрoде или в лесу, тo скoрoсть ветра занижена на 2-4 м/с пo сравнению с oткрытым местoм. Скoрoсть ветра над акватoриями крупных рек и oзёр, а также на вершинах хoлмoв на 2-5 м/с выше, чем в oбычных услoвиях.
Атмoсфернoе давление в разных тoчках местнoсти мoжет значительнo oтличаться oт давления на метеoстанции, в зависимoсти oт услoвий рельефа (при пoдъёме на 10 м давление пoнижается примернo на 1 мм рт.ст.).